This is the latest recevied weather packets stored in our database for station/object S56VIL-11. If no packets are shown the sender has not sent any weather packets the latest 10 day(s).
| Time | Temp. | Humidity | Pressure | Rain* | Wind** | Luminosity | Snow |
|---|---|---|---|---|---|---|---|
| 1788471637 | 21.67° C | 56% | 1033.6 hPa | - | - | - | - |
| 1788470737 | 21.67° C | 56% | 1033.8 hPa | - | - | - | - |
| 1788469837 | 21.67° C | 56% | 1033.6 hPa | - | - | - | - |
| 1788468937 | 21.67° C | 56% | 1033.5 hPa | - | - | - | - |
| 1788468037 | 21.67° C | 55% | 1033.4 hPa | - | - | - | - |
| 1788467136 | 21.67° C | 55% | 1033.4 hPa | - | - | - | - |
| 1788466236 | 22.22° C | 55% | 1033.4 hPa | - | - | - | - |
| 1788465336 | 22.22° C | 55% | 1033.4 hPa | - | - | - | - |
| 1788464436 | 22.22° C | 55% | 1033.3 hPa | - | - | - | - |
| 1788463536 | 21.67° C | 55% | 1033.3 hPa | - | - | - | - |
| 1788462636 | 21.67° C | 56% | 1033.4 hPa | - | - | - | - |
| 1788461736 | 21.67° C | 55% | 1033.3 hPa | - | - | - | - |
| 1788460836 | 22.22° C | 55% | 1033.2 hPa | - | - | - | - |
| 1788459936 | 22.22° C | 55% | 1033.1 hPa | - | - | - | - |
| 1788459036 | 22.22° C | 55% | 1033 hPa | - | - | - | - |
| 1788458142 | 22.78° C | 54% | 1033.1 hPa | - | - | - | - |
| 1788458136 | 22.78° C | 54% | 1033.1 hPa | - | - | - | - |
| 1788457236 | 22.78° C | 54% | 1033 hPa | - | - | - | - |
| 1788456336 | 23.33° C | 54% | 1032.9 hPa | - | - | - | - |
| 1788455436 | 23.33° C | 54% | 1032.9 hPa | - | - | - | - |
| 1788454536 | 23.89° C | 54% | 1032.7 hPa | - | - | - | - |
| 1788453636 | 24.44° C | 54% | 1032.9 hPa | - | - | - | - |
| 1788451836 | 27.22° C | 52% | 1032.7 hPa | - | - | - | - |
| 1788450996 | 26.11° C | 53% | 1032.6 hPa | - | - | - | - |
| 1788450936 | 26.11° C | 53% | 1032.6 hPa | - | - | - | - |
* Rain since midnight (hover to see other rain measurements)
** Current wind speed in m/s (hover to see current wind gust speed)